ARIANE 5 R/B (43059 NORAD) Tracking and Keplerian Element Data

This shows tracking and keplerian element data for the satellite.

Feedback or suggestion? Click here.




ElementValue
Catalog43059
NameARIANE 5 R/B
Epoch Orbit47
Epoch Day9.30314859
Epoch Year2018
RAAN306.0729
Inclination56.9193
Eccentricity0.0002358
Argument of Perigee243.098
Mean Anonmoly116.8869
Mean Motion1.73187672
Decay Rate-7.3E-07
L11 43059U 17079E 18009.30314859 -.00000073 00000-0 00000-0 0 9997
L22 43059 56.9193 306.0729 0002358 243.0980 116.8869 1.73187672 479

Live tracking and technical data element details for ARIANE 5 R/B (NORAD 43059). ARIANE 5 R/B can be tracked NOW for your location showing map with azimuth and elevation plus other details from your city location.

Track the satellite on the map from your city or location and see movement details for azimuth, elevation, latitude, longitude, range, height, and movement on the map or in text.







IsCatalogInMostPopularTable: catalog: 43059, numindb: 135
Update: records affected: 1



GetName: 43059 ARIANE 5 R/B

Hit Count: updated at: Mon, 19 Nov 2018 14:09:52 GMT